Find Starlink 32623

NORAD ID: 62152 Int'l Des: 2024-224 Owner: SPXS Country: US Constellation: starlink operational
LEOCIRCULAR

リアルタイム位置

3D地球を読み込み中...

Starlink 32623について

説明を読み込み中...

次回通過

Passes for default location (London). Set your location on the main map for personalized predictions.

高度履歴

Loading altitude history...

軌道要素

1 62152U 24224P 26126.63462307 .00015869 00000-0 58503-3 0 9991
2 62152 43.0020 194.1801 0001766 264.4272 95.6378 15.27575157 81246
Epoch: May 6, 2026 • Age: 13 hours

現在のステータス

高度 482.9 km
速度 7.63 km/s
衛星直下点 -0.22°S, 90.77°W
打ち上げ日 Nov 30, 2024
運用期間 1.4 years
タイプ internet

技術仕様

分類 Payload
質量 730.00 kg
乾燥質量 700.00 kg
総質量 730.00 kg
長さ 0.30 m
直径 4.10 m
スパン 29.00 m
形状 Box + pan
製造者 SPXS
バスタイプ Starlink V2M
フェーズステータス In Orbit
所有者/国 SPXS/US

Most Searched